STARLINK-31665, 59655

Orbit data source: Space-Track

STARLINK-31665, 59655 is a payload satellite owned by SpaceX/Seattle (US) in LEO that was launched on Mon, 06 May 2024 UTC via an FALCON 9 launch vehicle from the Air Force Eastern Test Range (AFETR). Payload-class satellites include a variety of spacecraft equipped with specific instruments for various scientific and technological missions. These include communications satellites like Starlink; space stations such as the ISS; scientific satellites like the Hubble; Earth observation satellites from companies like Planet Labs, Umbra, and HawkEye 360; GPS; miniature CubeSats for education and research; and military/defense satellites.

Loading next visibility...
Identifier
59655, 2024-084B
Orbit
LEO
Country
Flag of USUS
Related business
Manufacturer
SpaceX/Seattle
Mission
Operational Commercial Communications
Bus & Motor
STARLINK V2M, Unknown motor
Mass
730 kg wet, ~700 kg dry
Launch date (UTC)
2024-05-06 (2 years ago)
Launch vehicle
FALCON 9
Launch site
Air Force Eastern Test Range (AFETR)
Object type
Payload
Rocket body
Debris
Shape & HBR
Box + 2 Pan, 17.7 m
Radar Cross Section
33.884 m², Large (>1 m²)

Expand to show TLE details & history
Last TLE update: 7 hours ago

TLE from 7 hours ago
0 STARLINK-31665
1 59655U 24084B   26073.52684292  .00000193  00000-0  16529-4 0  9994
2 59655  43.0012  10.9636 0000337 273.8699  86.2114 15.27588250105151
Epoch: 2026-03-14T12:38Z
TLE epoch observation values (Epoch: 2026-03-14T12:38:39.228Z)
Latitude
-0.00002°
Longitude
9.15338°
Altitude
482.785 km
Speed
7.626 km/s
True Right ascension
00h 43m 51s
True Declination
0° 00' 00"
Sunlit
Object was in daylight at epoch
Visualization orbit readout
Latitude
Unknown
Longitude
Unknown
Altitude
Unknown
Speed
Unknown
Apparent Right ascension
Unknown
Apparent Declination
Unknown
Sunlit
N/A
Visualization observer readout
Local Sidereal Time
00:05:05
Azimuth
Unknown
Elevation
Unknown
Doppler factor
Unknown
Orbital elements
Apogee altitude
485.201 km
Perigee altitude
484.738 km
Semi-major axis
6,863.106 km
Eccentricity
0.00003
Inclination
43.0012°
RAAN
10.9636°
Arg. of periapsis
273.8699°
True anomaly
86.21525°
Mean anomaly
86.2114°
Eccentric anomaly
86.21333°
Mean motion
3.81735 °/min
Orbital period
94.31 mins
BSTAR
0.000016529
Loading maneuver chart data...
Computing Atmospheric mass density...
Loading historical data...
Loading historical data...
Loading historical data...
Loading historical data...
Loading historical data...
Loading historical data...
Loading historical data...

Documentation

Showing up to 5 results
|